sat.trackr.live / text

‹ back to catalog

BADR-7 (ARABSAT-6B)

NORAD 41029 · 2015-065B

PAYLOAD ACTIVE UNKNOWN

§ Identity

Operator
Country
AB
Launch date
2015-11-10
Launch site
FRGUI
Launch vehicle
Mass (kg)
RCS (m²)
78.97

Purposes: comms

External: N2YO · Heavens-Above · Gunter

§ Orbital elements

Epoch: 2026-05-25T03:52:01.550784Z

Period
1,436.11 min
Inclination
0.0322°
Eccentricity
0.0002711
Mean motion
1.00271172 rev/d
Perigee alt
35,775.3 km
Apogee alt
35,798.2 km
Semi-major
42,164.9 km
B*
0.0000e+0
RAAN
239.1464°
Arg perigee
324.7428°
Mean anomaly
122.8436°
Rev number
3,853

§ Raw data

BADR-7 (ARABSAT-6B)1 41029U 15065B   26145.16112906  .00000142  00000+0  00000+0 0  99922 41029   0.0322 239.1464 0002711 324.7428 122.8436  1.00271172 38531

JSON: /api/v1/satellites/41029 · /tle

For live sub-satellite position, see the globe view (requires WebGL).

§ Visibility from observer

Set your observer location to see the next 7 days of passes ≥ 10°. The values pass through the URL so the page stays shareable.

No JS? Fill the form by hand. The geolocation button needs JavaScript.